Regional Weather Roundup
Issued by NWS

Home | Current Version | Previous Version | Graphics & Text | Print | Product List | Glossary On
Versions: 1 2 3 4 5 6 7 8 9 10 11 12 13 14 15 16 17 18 19 20 21 22 23 24 25 26 27 28 29 30 31 32 33 34 35 36 37 38 39 40 41 42 43 44 45 46 47 48 49 50
000
ASUS43 KTOP 210759
RWRKS

WEATHER ROUNDUP FOR KANSAS
NATIONAL WEATHER SERVICE GOODLAND KS
200 AM CST SUN JAN 21 2018

NOTE:  "FAIR" INDICATES FEW OR NO CLOUDS BELOW 12,000 FEET WITH NO
SIGNIFICANT WEATHER AND/OR OBSTRUCTIONS TO VISIBILITY.

KSZ001>006-013>018-027>032-041>047-210900-
NORTHWEST KANSAS

CITY           SKY/WX    TMP DP  RH WIND       PRES   REMARKS
GOODLAND       CLOUDY    31  28  89 N14       29.77R WCI  21
HAYS           LGT RAIN  35  33  92 NE7       29.69R VSB 1/2
HILL CITY      CLOUDY    36  35  96 N14       29.72F FOG     WCI  27
RUSSELL        FOG       34  34 100 NE9       29.67F VSB 1/4
$$

KSZ061>065-074>080-084>089-210900-
SOUTHWEST KANSAS

CITY           SKY/WX    TMP DP  RH WIND       PRES   REMARKS
DODGE CITY     CLOUDY    32  20  61 SE5       29.65F
GARDEN CITY    CLOUDY    27  22  81 N12       29.68R WCI  17
GREAT BEND     CLOUDY    28  26  92 E3        29.67F
LIBERAL        CLOUDY    32  17  54 NW6       29.66S
$$

KSZ066>073-081>083-090>101-210900-
SOUTHEAST KANSAS

CITY           SKY/WX    TMP DP  RH WIND       PRES   REMARKS
CHANUTE        CLOUDY    57  52  83 S17       29.81R
COFFEYVILLE    CLOUDY    58  53  84 S21G28    29.80F
HUTCHINSON     CLOUDY    40  38  93 E7        29.70R
MEDICINE LODGE   N/A     65  36  34 SE9       29.67F
NEWTON         CLOUDY    41  40  96 SE10      29.71F
PARSONS        CLOUDY    58  53  84 S16G25    29.81S
WICHITA INTL   CLEAR     47  46  97 S13       29.71S
WICHITA JABRA  CLEAR     47  47 100 S13       29.71F
WICHITA MCCONL CLEAR     49  47  92 S15       29.71F
WINFIELD       CLEAR     51  51 100 S14       29.74S
$$

KSZ007>012-019>026-033>040-048>060-102>105-210900-
NORTHEAST KANSAS

CITY           SKY/WX    TMP DP  RH WIND       PRES   REMARKS
CONCORDIA      FOG       35  35 100 E8        29.73F VSB 1/4
EMPORIA        CLOUDY    48  47  96 SE12      29.75F
LAWRENCE       CLOUDY    43  43 100 E6        29.80S FOG
MANHATTAN      FOG       37  35  92 CALM      29.76F VSB 1/4
OLATHE IND     CLOUDY    49  48  97 S9        29.82S
OLATHE EXE     CLOUDY    50  49  96 S10       29.81F
SALINA         CLOUDY    33  32  96 CALM      29.71F FOG
TOPEKA BILLARD FOG       33  33 100 E5        29.78F VSB 3/4
TOPEKA FORBES  CLOUDY    41  41 100 SE7       29.78S FOG
$$



USA.gov is the U.S. government's official web portal to all federal, state and local government web resources and services.